Location: Hopville
(44.8032°N, 123.1329°W)
Time: 16:49:50
(UTC+00:00)

CZ-2C R/B - Pass Details

Date: 24 January 2021
Orbit: 390 x 584 km, 35.0° (Epoch: 28 February)

Event Time Altitude Azimuth Distance (km) Brightness Sun altitude
Exits shadow 12:53:04 16° 147° (SSE) 1,452 3.7 -29.4°
Drops below altitude 10° 12:54:41 10° 126° (SE) 1,799 4.5 -29.1°
Sets 12:57:22 0° 108° (ESE) 2,653 5.9 -28.7°
